ATLAS 5 CENTAUR DEB, 52044

Orbit data source: Space-Track

ATLAS 5 CENTAUR DEB, 52044 is space debris in HEO originally from a launch on Wed, 17 Oct 2018 UTC launched from the Air Force Eastern Test Range (AFETR). Debris objects in space refer to the collection of defunct objects orbiting the Earth. Examples of debris include non-operational satellites, rocket bodies, and fragments generated from explosions, collisions, or faulty payload assembly.

Loading next visibility...
Identifier
52044, 2018-079GN
Orbit
HEO
Country
Flag of USUS
Related business
Flag of USUnited Launch Alliance/Lockheed Martin (US)
Manufacturer
ULA Decatur
Mission
Spacecraft
Bus & Motor
Unknown
Mass
Unknown
Launch date (UTC)
2018-10-17 (8 years ago)
Launch vehicle
Unknown
Launch site
Air Force Eastern Test Range (AFETR)
Object type
Payload
Rocket body
Debris
Shape & HBR
Unknown shape, 1.1 m
Radar Cross Section
RCS unknown

Expand to show TLE details & history
Last TLE update: 1 day ago

TLE from 1 day ago
0 ATLAS 5 CENTAUR DEB
1 52044U 18079GN  26167.23389948 -.00000104  00000-0  00000+0 0  9993
2 52044  12.9406  40.0127 4295186 317.3632  16.2891  1.90891177 33852
Epoch: 2026-06-16T05:36Z
TLE epoch observation values (Epoch: 2026-06-16T05:36:48.915Z)
Latitude
0.0001°
Longitude
51.26336°
Altitude
10,662.114 km
Speed
5.68 km/s
True Right ascension
02h 39m 54s
True Declination
0° 00' 00"
Sunlit
Object was in daylight at epoch
Visualization orbit readout
Latitude
Unknown
Longitude
Unknown
Altitude
Unknown
Speed
Unknown
Apparent Right ascension
Unknown
Apparent Declination
Unknown
Sunlit
N/A
Visualization observer readout
Local Sidereal Time
20:49:47
Azimuth
Unknown
Elevation
Unknown
Doppler factor
Unknown
Orbital elements
Apogee altitude
32,865.257 km
Perigee altitude
9,282.818 km
Semi-major axis
27,452.174 km
Eccentricity
0.42952
Inclination
12.9406°
RAAN
40.0127°
Arg. of periapsis
317.3632°
True anomaly
42.70694°
Mean anomaly
16.2891°
Eccentric anomaly
27.74627°
Mean motion
0.47718 °/min
Orbital period
754.44 mins
BSTAR
0
Loading maneuver chart data...
Computing Atmospheric mass density...

Documentation

Showing up to 5 results
|